29.2.2020 Kaasujalka ralli

Tulokset  Keskeyttäneet (34)  AT-pisteet (0)  Tilastot Lähtöön oikeutettujen lista CSV


 << EK5 EK7 >> Yleiskilpailun tulos
Kaasujalka ralli
29.2.2020
EK 6, LUOKKATULOKSET
R-Rallicup
Yellow racing team
KJT-Asennus Oy
 
Luokka 1 , Historic gr2,4, a alle 1350 60-90 vm. 2wd , Lähti:6
EK6, 11km, nopein: 94.5km/h
SijNroNimiTulosEro
1109Ari Liimatainen €6:58,9
2111Janne Solatie €7:43,945,0
3113Vesa Båga8:14,91:16,0
Tulos EK 6 jälkeen
SijNroNimiTulosEro
1109Ari Liimatainen €18:26,6
2111Janne Solatie €19:50,4 1:23,8
3113Vesa Båga21:31,9 3:05,3


Keskeyttäneet: 50, Timo Hytönen, 6A, Tekninen syy  -   110, Jari Päivärinta €, 4A, Tekninen syy  -   114, Sami Kauppinen, 5B, Ulosajo
 
Luokka 3 , F, A, HR alle 1650 2wd , Lähti:11
EK6, 11km, nopein: 108.6km/h
SijNroNimiTulosEro
1100Marko Mansikkamäki €6:04,6
299Juho Nykänen €6:05,00,4
3108Raimo Kovanen6:05,71,1
4102Sami Jokinen €6:17,312,7
5105Pasi Martikainen6:18,413,8
698Mikko Kurkela €6:19,014,4
7101Tomi Saari €6:23,418,8
8107Santtu Pajunpää6:47,142,5
Tulos EK 6 jälkeen
SijNroNimiTulosEro
199Juho Nykänen €16:13,6
2100Marko Mansikkamäki €16:14,7 1,1
3108Raimo Kovanen16:24,5 10,9
498Mikko Kurkela €16:37,7 24,1
5102Sami Jokinen €16:50,6 37,0
6101Tomi Saari €16:53,7 40,1
7105Pasi Martikainen17:01,3 47,7
8107Santtu Pajunpää18:03,0 1:49,4


Keskeyttäneet: 103, Jani Kuivas €, 4A, Tekninen syy  -   104, Oskari Jauhiainen €, 5A, Tekninen syy  -   106, Janne Harju, 5A, Tekninen syy
 
Luokka 4 , F, A, HR alle 2100 2wd , Lähti:16
EK6, 11km, nopein: 110.5km/h
SijNroNimiTulosEro
183Miko Jalava €5:58,5
295Olli Rämänen6:13,615,1
397Lasse Lahikainen6:18,720,2
488Petteri Paavilainen6:20,121,6
584Kyösti Kotamäki €6:22,524,0
691Timo Siik6:25,326,8
786Sami Sabell6:34,235,7
890Mirco Ilminen6:38,339,8
996Henry Isakoff6:39,541,0
1087Mika Kylmälä6:56,157,6
1192juha flyktman7:22,71:24,2
1285Jussi Kananoja €7:36,51:38,0
Tulos EK 6 jälkeen
SijNroNimiTulosEro
183Miko Jalava €16:30,2
295Olli Rämänen16:39,6 9,4
384Kyösti Kotamäki €16:48,2 18,0
497Lasse Lahikainen16:49,3 19,1
588Petteri Paavilainen16:51,8 21,6
686Sami Sabell17:20,6 50,4
791Timo Siik17:26,2 56,0
896Henry Isakoff17:33,6 1:03,4
990Mirco Ilminen18:02,0 1:31,8
1087Mika Kylmälä18:02,5 1:32,3
1192juha flyktman19:16,3 2:46,1
1285Jussi Kananoja €19:25,6 2:55,4


Keskeyttäneet: 82, Esa Ketomäki €, 4A, Tekninen syy  -   89, Teemu Rajasto, 4A, Tekninen syy  -   93, Joonas Ahokas, 4A, Ulosajo  -   94, Pasi Laitinen, 6A, Tekninen syy
 
Luokka 5 , F, A, HR yli 2100 2wd , Lähti:10
EK6, 11km, nopein: 101.9km/h
SijNroNimiTulosEro
171Sami Ahonen €6:28,5
275Pasi Hirvikoski €6:34,25,7
372Jani Rihu €6:35,26,7
474Sami Tikkanen €6:45,216,7
576Laurell Henry7:21,753,2
Tulos EK 6 jälkeen
SijNroNimiTulosEro
172Jani Rihu €17:17,1
275Pasi Hirvikoski €17:29,7 12,6
374Sami Tikkanen €17:51,5 34,4
471Sami Ahonen €18:04,6 47,5
576Laurell Henry19:32,2 2:15,1


Keskeyttäneet: 73, Antti Rintamäki €, 1B, Tekninen syy  -   77, Markus Minkkilä, 6B, Tekninen syy  -   78, Hannu Hautakoski, 5B, Ulosajo  -   79, Esa Puupponen, 4A, Tekninen syy  -   81, Niko Konkola, 4A, Tekninen syy
 
Luokka 6 , Senior 50 v. cc vapaa 2wd , Lähti:16
EK6, 11km, nopein: 106km/h
SijNroNimiTulosEro
156Markku Tuoriniemi €6:13,6
254Pauli Sinkkonen €6:15,62,0
353Petteri Rantanen €6:18,95,3
465Timo Nousiainen6:19,05,4
563Christer Sundholm6:32,218,6
658Pasi Kämäräinen €6:33,019,4
764juha kaipainen6:58,544,9
860Petri Heikkilä €7:01,347,7
970Rauno Jaakkola7:16,11:02,5
1059Ilpo Saari €7:20,01:06,4
1167Jorma Isotalo7:23,51:09,9
Tulos EK 6 jälkeen
SijNroNimiTulosEro
153Petteri Rantanen €16:36,1
256Markku Tuoriniemi €16:37,6 1,5
365Timo Nousiainen16:49,0 12,9
454Pauli Sinkkonen €16:49,9 13,8
558Pasi Kämäräinen €17:18,5 42,4
663Christer Sundholm17:48,4 1:12,3
764juha kaipainen18:09,1 1:33,0
860Petri Heikkilä €18:33,6 1:57,5
959Ilpo Saari €19:06,0 2:29,9
1070Rauno Jaakkola19:25,9 2:49,8
1167Jorma Isotalo19:55,8 3:19,7


Keskeyttäneet: 55, Timo Ahonen €, 4B, Ulosajo  -   57, Jari Muhonen €, 6A, Tekninen syy  -   66, Ari Ijäs, 6B, Tekninen syy  -   68, Tauno Rantala, 1B, Tekninen syy  -   69, Pekka Mustanoja, 5B, Tekninen syy
 
Luokka 7 , V-1600 alle 1650 gr1, N ja V1600 2wd , Lähti:10
EK6, 11km, nopein: 102.2km/h
SijNroNimiTulosEro
143Joonas Tonteri €6:27,6
246Ari Pentinmäki6:41,213,6
344Timo Karhinen €7:00,232,6
451Markus Väätänen7:07,039,4
542Janne Rissanen €7:09,742,1
652Petri Riihimäki7:18,250,6
747Anssi Pihala7:20,352,7
848Jan Andersin7:41,51:13,9
Tulos EK 6 jälkeen
SijNroNimiTulosEro
143Joonas Tonteri €17:13,5
246Ari Pentinmäki17:37,9 24,4
344Timo Karhinen €18:24,6 1:11,1
442Janne Rissanen €18:48,8 1:35,3
551Markus Väätänen18:53,9 1:40,4
647Anssi Pihala19:15,5 2:02,0
752Petri Riihimäki19:20,5 2:07,0
848Jan Andersin20:38,0 3:24,5


Keskeyttäneet: 45, Ilkka Manier €, 5B, Ulosajo  -   49, Markku Hytönen, 4B, Tekninen syy
 
Luokka 8 , V-2000 alle 2050 gr1, N, V2000 2wd , Lähti:5
EK6, 11km, nopein: 103.8km/h
SijNroNimiTulosEro
137Kari Mutkala €6:21,5
238Mikko Viitanen €6:42,521,0
339Rami Härkönen €7:10,549,0
440Kristian Pannula €7:31,41:09,9
Tulos EK 6 jälkeen
SijNroNimiTulosEro
137Kari Mutkala €17:13,2
238Mikko Viitanen €17:43,4 30,2
339Rami Härkönen €18:42,4 1:29,2
440Kristian Pannula €19:26,9 2:13,7


Keskeyttäneet: 41, Toni Ketomäki, 5B, Ulosajo
 
Luokka 9 , Nuoret V-1600 2wd , Lähti:6
EK6, 11km, nopein: 93.7km/h
SijNroNimiTulosEro
1115Tomi Tiilikainen €7:02,6
2119Ville Wikström7:10,68,0
3117Timo Koskinen €7:14,211,6
4116Aatu Hirvikoski €7:24,521,9
5120Jooa Iivari7:29,927,3
6118Luka Manninen8:11,41:08,8
Tulos EK 6 jälkeen
SijNroNimiTulosEro
1115Tomi Tiilikainen €18:49,7
2117Timo Koskinen €19:04,4 14,7
3119Ville Wikström19:14,5 24,8
4116Aatu Hirvikoski €19:47,6 57,9
5120Jooa Iivari24:51,8 6:02,1
6118Luka Manninen25:52,3 7:02,6

 
Luokka 11 , 4wd cc vapaa Kaikki ikäkaudet , Lähti:4
EK6, 11km, nopein: 105.6km/h
SijNroNimiTulosEro
125sami tuohinen6:15,0
226Henri Alahuhta6:44,429,4
327Timo Takala6:49,334,3
Tulos EK 6 jälkeen
SijNroNimiTulosEro
125sami tuohinen16:22,7
226Henri Alahuhta17:40,8 1:18,1
327Timo Takala17:45,9 1:23,2


Keskeyttäneet: 23, Tatu Soisalo €, 5B, Tekninen syy
 
Luokka 12 , 4 wd A, Fin-R cc vapaa Nuotti , Lähti:5
EK6, 11km, nopein: 110.3km/h
SijNroNimiTulosEro
13Matti Latvala5:59,0
22Tommi Rimpeläinen6:15,216,2
31Aatu Tunturi6:27,928,9
Tulos EK 6 jälkeen
SijNroNimiTulosEro
13Matti Latvala15:54,3
22Tommi Rimpeläinen16:35,7 41,4
31Aatu Tunturi17:17,7 1:23,4


Keskeyttäneet: 4, Veli-Matti Saarelainen, 6A, Ulosajo  -   5, Mikko Suvinen, 5B, Ulosajo
 
Luokka 15 , F, A, HR yli 1650 2wd Nuotti , Lähti:16
EK6, 11km, nopein: 109km/h
SijNroNimiTulosEro
119Marko Kinnunen6:03,2
211Benjamin Korhola €6:06,83,6
321Tommi Hannuksela6:15,512,3
412Roman Prokhorov €6:18,515,3
514Eemil Mielityinen €6:24,120,9
66Max Karhapää €6:30,727,5
718Tuomo Laitila6:35,332,1
810Sami Saari €6:37,033,8
920Ville Jauhiainen6:44,941,7
108Toni Piiroinen €6:46,443,2
1117Jussi Soikkeli6:49,946,7
1222Vesa Rissanen7:04,11:00,9
137Markku Hakkarainen €7:08,31:05,1
1415Juha Niskanen7:22,31:19,1
1516Ari Halmela7:26,21:23,0
1613Kimmo Johansson €8:59,92:56,7
Tulos EK 6 jälkeen
SijNroNimiTulosEro
119Marko Kinnunen16:16,7
211Benjamin Korhola €16:35,8 19,1
36Max Karhapää €16:37,9 21,2
421Tommi Hannuksela16:47,5 30,8
512Roman Prokhorov €17:16,7 1:00,0
610Sami Saari €17:29,4 1:12,7
718Tuomo Laitila17:39,1 1:22,4
820Ville Jauhiainen17:39,6 1:22,9
917Jussi Soikkeli17:52,5 1:35,8
108Toni Piiroinen €18:05,7 1:49,0
1122Vesa Rissanen18:07,2 1:50,5
127Markku Hakkarainen €18:59,7 2:43,0
1315Juha Niskanen19:18,6 3:01,9
1416Ari Halmela19:33,4 3:16,7
1513Kimmo Johansson €23:40,8 7:24,1
1614Eemil Mielityinen €25:08,5 8:51,8

 
Luokka 17 , BMW orginal 2wd , Lähti:4
EK6, 11km, nopein: 104.7km/h
SijNroNimiTulosEro
135Sami Hakonen €6:18,3
233Ville Pulkkinen €6:28,410,1
334Tero Karppi €6:40,622,3
436Kimmo Vilenius7:01,743,4
Tulos EK 6 jälkeen
SijNroNimiTulosEro
135Sami Hakonen €17:04,3
234Tero Karppi €17:31,5 27,2
333Ville Pulkkinen €17:33,6 29,3
436Kimmo Vilenius19:01,6 1:57,3

 
Luokka 20 , Proto cc vapaa 2wd turbot , Lähti:5
EK6, 11km, nopein: 102.7km/h
SijNroNimiTulosEro
129Kari Herronen €6:25,7
228Jarno Puupponen €6:26,50,8
330Petri Katainen €6:32,06,3
432Tomi Mäkinen6:51,325,6
531Aki Suni7:16,250,5
Tulos EK 6 jälkeen
SijNroNimiTulosEro
128Jarno Puupponen €17:01,0
229Kari Herronen €17:11,6 10,6
330Petri Katainen €17:18,9 17,9
432Tomi Mäkinen18:20,0 1:19,0
531Aki Suni19:20,2 2:19,2